Simultaneous Nadir Overpasses (SNOs) Predictions

Prediction of SNOs between AQUA and NPP Satellite Orbit:

Table of predicted SNOs for the next 14.0 days since TLE Epoch: 3/21/2020
Index Date (AQUA) Time (AQUA) Lat,Lon (AQUA) SZA (AQUA ) Date (NPP) Time (NPP) Lat,Lon (NPP) SZA (NPP ) Distance(km) Time Diff (sec)
1 03/21/2020 14:05:33 75.67,-153.23 97.36 03/21/2020 14:04:27 75.68,-153.21 97.41 0.59 66
2 03/21/2020 14:54:39 -76.71, 17.71 83.86 03/21/2020 14:54:50 -76.71, 17.74 83.87 0.88 11
3 03/24/2020 06:22:00 75.81, -36.96 96.14 03/24/2020 06:21:20 75.80, -37.04 96.19 2.41 40
4 03/24/2020 07:11:06 -76.83, 134.04 85.08 03/24/2020 07:11:43 -76.83, 133.98 85.10 1.49 37
5 03/26/2020 22:38:17 76.37, 80.69 94.41 03/26/2020 22:38:02 76.38, 80.72 94.42 0.94 15
6 03/26/2020 23:27:24 -77.32,-108.23 86.74 03/26/2020 23:28:26 -77.33,-108.13 86.82 2.56 62
7 03/29/2020 14:05:36 -75.62, 26.62 85.78 03/29/2020 14:04:30 -75.62, 26.61 85.72 0.26 66
8 03/29/2020 14:54:42 76.59,-162.71 93.10 03/29/2020 14:54:53 76.58,-162.75 93.10 1.25 11
9 04/01/2020 06:22:00 -75.89, 143.28 87.14 04/01/2020 06:21:20 -75.88, 143.22 87.09 1.80 40
10 04/01/2020 07:11:08 76.75, -46.27 91.85 04/01/2020 07:11:45 76.74, -46.38 91.85 3.00 37
11 04/03/2020 22:38:16 -76.53, -98.78 88.93 04/03/2020 22:38:01 -76.54, -98.68 88.94 2.94 15




NCC Satellite Simultaneous Nadir Overpasses (SNOs) Prediction Service
